RH
87 82 77 72 60 57 62 45 28 25 28 30 32 34 38 40 43 49 53 52 50 48 47 41 37 33 31 29 28 23 20 20 19 18 18 17 16 16 17 18 17 16 16
28 34 42 51 53 40 33 29 28 32 36 39 40 42 48 55 62 54 49 50 50 49 47 40 40 35 32 28 25 22 22 19 19 17 15 17 16 14 13 15 16 15 15
32 40 48 44 35 31 31 33 36 36 39 42 49 54 58 64 65 64 57 48 44 41 39 36 36 32 27 25 23 21 19 18 17 14 13 13 11 10 10 11 12 14 15
36 43 42 37 32 32 31 34 40 45 47 48 54 62 64 66 61 54 48 44 38 34 34 33 30 27 25 23 21 20 18 14 13 11 9 5 4 5 6 5 7 10 14
35 36 35 33 35 40 46 45 47 46 53 60 62 68 69 63 54 44 36 34 34 35 32 28 26 24 24 25 23 23 24 19 20 23 12 7 6 4 4 5 4 5 8
44 39 38 39 41 42 50 73 74 70 76 83 79 72 58 54 42 36 35 36 36 31 25 24 23 24 31 56 54 40 41 38 36 29 11 7 5 4 4 4 4 4 4
55 46 46 48 55 78 86 86 85 85 79 73 66 55 50 41 37 37 37 36 28 25 23 22 38 59 74 66 56 49 45 39 36 31 12 7 5 5 4 4 4 4 5
49 47 60 77 96 95 89 94 89 73 64 59 49 46 38 36 39 38 32 26 26 23 35 73 96 84 72 63 56 48 40 38 36 33 17 6 6 6 5 5 5 4 5
92 97 100 100 100 97 80 60 55 57 52 43 43 38 37 42 40 30 28 26 38 70 100 94 85 72 68 61 51 42 37 35 34 33 24 7 7 7 5 5 6 6 6
100 100 95 91 78 57 46 42 40 38 36 38 38 40 41 38 32 25 37 64 94 98 93 79 74 67 62 58 48 38 33 31 30 32 31 20 8 8 8 8 8 9 11
81 67 55 46 42 39 37 36 37 38 40 41 43 39 40 30 35 59 92 99 99 90 86 77 70 66 61 51 43 39 32 27 23 26 30 33 29 18 12 10 11 14 17
44 40 38 39 42 43 42 42 43 42 41 44 41 36 39 61 98 100 98 100 98 84 73 72 65 62 53 48 46 42 36 32 28 24 23 24 29 34 35 28 20 14 16
44 39 30 27 27 29 29 33 36 35 36 34 34 62 92 100 100 99 96 92 81 71 70 68 64 55 51 48 56 54 52 45 40 41 39 31 28 25 26 29 32 35 36
40 25 17 12 11 11 14 17 22 28 33 47 78 100 100 98 91 84 85 78 74 68 67 67 59 56 51 52 68 69 60 57 53 54 58 57 54 54 48 35 27 25 25
31 35 35 37 28 28 33 40 64 65 72 97 100 100 96 88 78 83 72 74 76 67 72 65 64 65 62 68 76 76 71 71 67 67 74 69 75 76 80 80 68 63 53
62 70 64 77 82 73 93 93 97 80 90 100 100 100 87 91 70 69 76 80 74 69 62 62 60 60 62 79 71 78 84 78 73 82 79 76 72 77 80 72 68 66 58
55 66 80 90 79 87 82 93 88 93 92 91 100 86 95 87 76 77 82 73 70 60 58 60 56 63 63 71 72 82 72 82 88 94 89 81 80 73 67 66 65 65 63
46 53 59 63 81 75 92 82 84 84 84 97 96 82 90 92 78 81 74 69 58 57 57 56 61 63 64 71 76 75 97 99 98 84 100 98 90 84 93 90 72 76 81
39 39 46 47 49 64 70 80 71 81 82 86 81 86 86 83 81 75 65 57 53 55 57 59 62 61 62 67 82 97 100 98 81 86 92 100 99 96 100 100 100 97 98
36 34 34 40 46 52 56 72 79 75 82 76 70 73 79 78 66 57 50 52 56 60 56 58 60 69 74 88 98 95 76 84 93 100 100 88 82 97 99 93 88 84 88
45 47 38 35 38 46 54 59 66 64 73 69 63 59 62 57 53 49 51 54 56 52 52 59 70 82 88 84 92 84 85 88 100 100 100 100 100 100 99 99 97 88 86
52 49 47 49 47 41 39 40 40 46 46 45 45 44 48 51 50 52 50 52 59 66 59 66 71 71 70 75 74 81 84 85 80 76 90 100 98 92 86 75 80 80 79
74 65 59 56 55 58 54 43 40 40 41 43 44 48 52 50 50 53 54 66 68 76 73 85 100 95 94 70 72 82 87 84 87 88 90 82 78 74 72 75 76 79 84
100 93 79 74 68 69 63 58 55 53 51 47 45 48 46 46 50 58 64 62 64 82 96 80 73 86 87 94 99 97 100 97 99 100 92 85 96 90 75 76 81 84 98
81 90 95 100 95 89 81 79 77 69 62 56 60 60 60 62 62 69 80 75 73 68 79 94 96 91 100 100 100 100 100 100 90 92 79 79 87 86 83 86 98 99 100
96 84 85 62 69 100 100 92 90 96 88 78 80 76 71 73 74 78 81 83 90 90 90 100 100 100 100 100 100 100 92 87 87 82 78 71 78 79 89 100 100 100 100
Wind_Speed
67 69 69 68 66 63 58 55 50 49 50 52 54 56 55 55 57 57 59 62 66 69 71 72 75 76 77 79 81 81 81 83 86 84 86 87 87 87 85 83 82 82 80
55 56 56 55 54 52 52 50 50 51 53 55 56 57 59 62 64 65 67 70 74 75 76 73 74 75 79 81 82 82 84 87 89 91 91 89 90 89 87 89 89 87 86
49 50 51 51 52 52 53 53 54 56 57 58 59 61 64 68 72 74 76 77 74 69 70 73 77 79 80 81 83 84 85 87 89 87 86 84 80 84 83 83 85 86 88
48 49 51 53 55 56 56 58 58 58 60 61 64 66 71 74 76 77 75 69 67 70 75 77 79 79 80 79 79 80 82 83 82 81 83 76 70 69 72 75 78 84 86
53 53 55 56 58 60 60 61 62 65 66 68 71 73 77 78 77 72 68 70 73 76 78 78 76 74 73 72 74 76 76 76 75 77 78 70 67 65 64 71 75 79 82
60 59 60 61 62 64 64 65 68 70 72 73 76 79 79 75 70 70 73 76 79 79 75 71 68 64 59 57 62 66 66 70 66 70 67 61 55 55 58 61 71 74 77
66 67 67 65 67 66 69 72 74 75 78 80 80 76 71 70 71 74 77 79 74 68 66 60 49 45 49 53 56 59 55 56 56 62 55 51 45 43 44 50 60 67 72
70 71 70 71 70 73 76 78 79 80 79 77 73 70 70 71 74 76 74 67 65 58 42 34 37 42 47 51 49 50 46 46 46 50 51 41 35 31 31 35 44 56 64
67 68 69 73 76 78 80 79 77 77 74 72 71 71 71 75 73 67 63 56 39 29 28 34 37 42 41 42 44 45 44 41 39 40 44 35 27 22 22 25 31 40 51
73 73 73 75 78 78 77 75 74 73 72 71 72 73 73 72 65 58 39 27 23 26 30 34 37 36 37 40 41 41 38 36 33 32 31 33 25 18 14 14 20 26 32
75 76 74 71 71 71 71 71 72 72 73 73 75 73 68 60 41 26 21 23 26 29 31 33 31 33 35 37 36 34 33 31 32 29 28 26 26 21 14 11 11 14 23
71 70 68 68 71 73 75 76 76 77 76 75 70 58 47 27 20 22 24 27 30 31 34 30 30 32 33 31 29 30 32 31 29 29 27 26 23 22 21 16 9 7 12
73 77 75 72 72 74 75 75 72 70 66 56 50 28 19 21 23 24 26 28 30 33 27 28 29 30 27 26 26 28 26 26 28 29 30 32 30 27 23 20 16 11 7
71 66 62 56 47 47 48 51 49 44 38 28 17 17 22 25 25 28 28 31 30 25 27 28 28 26 25 20 20 20 20 23 26 29 31 33 33 33 32 28 24 19 14
36 33 31 25 23 23 22 21 20 20 19 19 19 21 23 24 25 26 31 31 28 26 29 28 21 20 17 17 14 17 20 22 26 26 27 28 27 26 26 27 26 27 27
23 24 25 23 20 18 16 19 20 18 18 23 22 23 26 27 29 31 31 30 26 28 29 23 19 18 15 12 13 13 18 20 24 24 26 27 26 26 24 24 24 25 25
25 26 28 29 27 23 20 22 22 21 21 23 25 26 27 29 31 31 31 24 26 27 21 20 19 14 12 11 13 11 14 17 20 20 22 22 25 27 30 30 29 30 30
24 27 29 29 31 28 24 21 21 21 23 25 28 30 31 33 34 33 27 28 27 21 22 18 15 15 12 9 11 14 14 17 18 19 22 26 28 30 33 34 34 33 34
21 22 23 25 24 25 25 23 23 25 25 27 31 33 35 37 34 29 30 27 21 20 17 14 13 12 10 10 12 15 14 15 14 21 23 26 29 31 33 36 37 38 40
23 22 19 17 13 15 20 25 28 29 31 35 33 29 28 31 30 28 25 20 16 15 16 12 11 12 12 14 14 15 14 18 22 25 26 30 32 33 35 39 39 39 40
23 22 22 21 17 15 17 19 22 24 25 27 28 26 25 27 24 21 16 16 16 15 12 13 14 14 15 16 18 20 23 24 24 30 32 34 40 41 42 42 40 40 41
22 23 22 21 20 18 17 18 19 20 23 22 22 20 21 21 17 16 14 14 13 14 15 18 19 18 21 22 22 26 30 31 34 34 36 37 41 41 42 41 42 43 46
27 24 24 21 20 20 20 19 15 16 16 16 16 16 17 18 17 18 19 18 19 19 21 23 26 28 28 31 33 35 38 38 39 39 42 42 43 44 44 47 47 50 53
39 36 32 29 27 25 25 22 21 21 22 21 20 20 22 23 24 24 24 25 25 26 28 27 27 29 31 32 33 36 38 40 42 44 46 47 49 51 51 51 54 57 59
41 40 44 42 40 37 33 32 31 29 28 29 30 29 28 29 30 31 33 33 35 34 34 36 36 36 41 41 43 47 48 50 49 51 49 50 55 57 59 61 61 62 65
57 52 49 50 52 49 48 44 40 41 41 41 38 38 40 41 41 42 43 43 43 38 39 43 44 45 47 47 48 51 54 56 56 58 58 58 59 63 66 69 70 70 72
Wind_Direction
265 269 271 271 273 275 276 275 273 275 279 283 285 289 290 291 295 295 294 293 293 294 294 292 291 291 290 288 286 284 282 280 279 277 276 276 274 272 269 264 261 259 255
266 269 271 272 273 272 270 271 274 277 279 283 288 290 293 295 293 293 293 294 294 294 294 292 292 291 290 289 288 287 285 283 283 282 280 278 276 274 269 265 261 258 257
268 269 269 270 269 269 270 272 275 278 284 286 288 293 293 292 293 295 295 294 293 291 292 292 292 290 290 290 289 289 287 286 285 285 283 279 276 274 270 266 262 256 253
263 263 264 266 269 269 271 273 277 283 284 286 290 289 290 292 293 293 293 293 294 294 293 292 291 293 292 292 290 289 288 288 290 290 287 286 281 277 272 264 256 253 251
261 260 263 268 270 274 276 280 282 283 285 287 288 290 292 292 292 293 293 293 294 295 293 293 293 292 291 289 288 289 291 293 295 293 292 292 284 275 266 259 253 249 246
266 269 271 272 274 276 281 281 282 284 285 287 289 289 291 290 291 292 293 293 294 294 293 294 294 291 289 286 288 295 297 298 299 298 296 295 283 271 263 254 251 245 244
270 271 272 275 278 278 278 279 281 282 283 285 287 289 290 291 292 293 292 294 293 294 293 293 290 286 288 292 296 299 303 306 306 305 308 303 292 279 265 253 248 243 241
274 273 276 278 276 277 279 281 281 282 284 286 287 287 288 290 294 293 292 292 294 292 291 289 286 290 297 298 303 306 312 312 312 312 317 313 301 287 269 255 248 243 239
276 277 277 276 276 278 279 281 282 283 284 285 285 288 290 293 294 294 293 293 288 287 286 285 291 297 300 305 308 313 318 317 318 320 325 330 312 296 279 260 248 244 242
274 274 273 273 274 277 279 280 281 281 282 284 286 288 291 293 293 293 285 279 283 287 287 293 297 300 306 309 313 316 323 329 329 335 337 349 341 322 295 275 256 249 247
271 271 272 274 275 276 277 278 279 281 282 285 287 290 291 290 288 274 274 277 283 287 292 299 300 306 309 310 317 324 330 337 347 353 360 2 12 11 353 323 286 261 251
273 274 274 273 273 274 275 276 277 279 281 283 286 288 285 278 268 275 274 282 285 290 296 297 302 307 308 314 326 328 333 341 350 359 7 15 20 25 27 27 7 302 273
275 276 276 275 272 270 271 271 273 277 278 280 283 266 261 265 270 270 278 284 286 292 295 298 303 305 307 315 325 329 338 347 355 4 9 13 16 21 27 31 29 22 7
276 280 281 281 275 270 268 268 271 272 273 266 239 238 253 261 270 275 278 282 288 292 295 302 305 304 309 324 332 334 346 355 1 9 12 12 13 14 12 9 10 9 4
281 284 286 289 289 284 275 268 255 257 256 220 229 247 253 265 276 278 283 283 284 287 295 300 294 306 318 332 333 346 350 360 4 4 3 5 8 10 8 4 1 356 353
302 300 290 287 290 286 262 243 245 261 239 232 240 254 262 274 286 285 284 283 279 288 296 294 291 303 310 322 322 346 354 357 354 355 356 358 358 357 357 354 351 345 340
304 302 295 288 281 277 264 253 254 256 240 239 249 260 272 279 287 286 284 278 283 289 291 285 291 296 302 313 322 348 344 348 347 351 354 357 358 354 353 350 348 346 342
310 307 299 289 276 270 264 268 257 261 256 256 263 267 275 276 285 285 274 278 285 288 294 287 288 286 296 306 315 314 327 333 336 338 349 345 344 343 345 344 342 339 336
333 316 306 299 289 270 260 265 263 260 264 268 268 271 275 279 280 273 277 281 282 284 278 282 285 286 293 293 299 310 319 323 320 328 332 334 330 329 333 332 329 329 329
360 351 335 322 305 280 271 266 268 269 270 272 274 276 273 274 272 274 275 275 277 272 269 272 276 289 290 293 301 299 301 317 319 321 324 321 323 328 324 323 320 320 324
355 351 355 351 339 317 296 284 276 278 274 273 276 276 270 272 274 271 267 264 265 263 265 266 266 274 279 284 282 292 302 304 310 314 317 318 321 318 319 321 322 322 321
327 333 341 342 337 334 323 305 298 289 282 282 280 275 271 266 262 261 258 258 262 274 273 277 279 275 291 292 287 297 303 297 302 302 310 311 313 309 311 313 314 316 317
301 303 306 309 316 317 312 311 309 296 290 285 284 277 265 260 250 258 261 266 272 278 284 284 287 285 288 290 292 294 297 298 300 304 306 308 308 308 308 313 314 317 317
295 296 291 292 290 289 292 295 292 286 286 281 279 272 267 262 263 272 275 276 274 280 285 284 285 288 289 294 295 298 300 300 301 300 302 302 304 307 310 312 315 316 317
279 280 284 285 284 283 280 281 282 279 273 270 272 276 272 271 272 272 274 277 278 277 278 281 284 287 287 292 292 295 296 298 298 298 301 301 304 305 309 313 315 314 314
281 278 274 275 276 276 277 274 271 273 275 275 272 269 269 271 272 273 273 273 274 272 275 281 286 287 287 290 291 290 292 294 296 298 300 302 303 306 308 309 310 310 310